Weather History for Indian Springs, NV

Change the Weather History Date:

Saturday, December 15, 2012

  Actual Average (KDRA) Record (KDRA)
Temperature  
Mean Temperature 38 °F -  
Max Temperature 44 °F 53 °F 68 °F (1998)
Min Temperature 32 °F 31 °F 26 °F (2007)
Degree Days  
Heating Degree Days 27    
Moisture  
Dew Point 31 °F    
Average Humidity 79    
Maximum Humidity 100    
Minimum Humidity 55    
Precipitation  
Precipitation 0.23 in - - ()
Sea Level Pressure  
Sea Level Pressure 29.91 in    
Wind  
Wind Speed 6 mph (WNW)    
Max Wind Speed 14 mph    
Max Gust Speed -    
Visibility 10 miles    
Events Rain , Snow    
Averages and records for this station are not official NWS values.
T = Trace of Precipitation, MM = Missing Value Source: NWS Daily Summary

Daily Weather History Graph

Daily Weather History Graph

Search for Another Location

Airport:

Trip Planner

Search our weather history database for the weather conditions in past years. The results will help you decide how hot, cold, wet, or windy it might be!

Date:

Astronomy

Dec. 15, 2012 Rise Set
Actual Time 6:47 AM PST 4:28 PM PST
Civil Twilight 6:19 AM PST 4:57 PM PST
Nautical Twilight 5:46 AM PST 5:29 PM PST
Astronomical Twilight 5:15 AM PST 6:01 PM PST
Moon 8:46 AM PST (12/15) 7:34 PM PST (12/15)
Length of Visible Light 10h 38m
Length of Day
9h 40m
Waxing Crescent, 9% of the Moon is Illuminated
Dec 15
Waxing Crescent
Dec 19
First Quarter
Dec 28
Full
Jan 4
Last Quarter
Jan 11
New

Hourly Weather History & Observations

Time (PST) Temp. Windchill Dew Point Humidity Pressure Visibility Wind Dir Wind Speed Gust Speed Precip Events Conditions
12:52 AM 39.2 °F 35.9 °F 33.8 °F 81% 29.85 in 10.0 mi NNW 4.6 mph - N/A Rain Light Rain
12:58 AM 38.3 °F 33.9 °F 34.7 °F 87% 29.85 in 10.0 mi North 5.8 mph - 0.00 in Rain Light Rain
1:28 AM 37.4 °F 32.1 °F 33.8 °F 87% 29.85 in 10.0 mi North 6.9 mph - N/A Rain Light Rain
1:58 AM 37.6 °F 33.1 °F 34.2 °F 87% 29.85 in 10.0 mi North 5.8 mph - 0.00 in Rain Light Rain
2:03 AM 37.4 °F 32.8 °F 33.8 °F 87% 29.85 in 10.0 mi North 5.8 mph - N/A Rain Light Rain
2:28 AM 37.4 °F 32.8 °F 33.8 °F 87% 29.85 in 10.0 mi North 5.8 mph - N/A Rain Light Rain
2:48 AM 37.4 °F 31.4 °F 32.0 °F 81% 29.85 in 10.0 mi NW 8.1 mph - N/A Rain Rain
2:58 AM 36.3 °F 30.8 °F 32.9 °F 87% 29.85 in 10.0 mi NW 6.9 mph - 0.03 in Rain Rain
3:58 AM 33.1 °F 26.1 °F 31.6 °F 94% 29.86 in 10.0 mi NW 8.1 mph - 0.10 in Snow Light Snow
4:58 AM 32.9 °F 28.5 °F 31.3 °F 94% 29.87 in 6.0 mi NNW 4.6 mph - 0.06 in Snow Light Snow
5:58 AM 32.9 °F - 31.8 °F 96% 29.89 in 6.0 mi Calm Calm - 0.03 in Snow Light Snow
6:38 AM 32.0 °F - 32.0 °F 100% 29.90 in 10.0 mi SW 1.2 mph - N/A Snow Light Snow
6:58 AM 32.9 °F 29.8 °F 32.4 °F 98% 29.91 in 10.0 mi SW 3.5 mph - 0.01 in Snow Light Snow
7:25 AM 33.8 °F 27.7 °F 32.0 °F 93% 29.91 in 10.0 mi SW 6.9 mph - N/A   Mostly Cloudy
7:58 AM 34.5 °F 26.7 °F 31.3 °F 88% 29.91 in 10.0 mi WSW 10.4 mph - 0.00 in   Partly Cloudy
8:58 AM 35.8 °F 26.9 °F 31.6 °F 85% 29.93 in 10.0 mi WSW 13.8 mph - N/A   Overcast
9:03 AM 35.6 °F 26.6 °F 32.0 °F 87% 29.94 in 10.0 mi WSW 13.8 mph - N/A   Mostly Cloudy
9:58 AM 38.3 °F 30.5 °F 33.6 °F 83% 29.95 in 10.0 mi WSW 12.7 mph - N/A   Partly Cloudy
10:24 AM 39.2 °F 37.0 °F 32.0 °F 75% 29.95 in 10.0 mi West 3.5 mph - N/A   Mostly Cloudy
10:58 AM 38.8 °F - 31.6 °F 75% 29.94 in 10.0 mi ENE 2.3 mph - N/A   Scattered Clouds
11:58 AM 40.1 °F - 29.7 °F 66% 29.92 in 10.0 mi Calm Calm - N/A   Partly Cloudy
12:58 PM 42.4 °F 40.7 °F 30.2 °F 62% 29.92 in 10.0 mi North 3.5 mph - N/A   Mostly Cloudy
1:58 PM 42.8 °F - 28.6 °F 57% 29.92 in 10.0 mi NNW 2.3 mph - N/A   Partly Cloudy
2:58 PM 44.1 °F 38.6 °F 28.6 °F 55% 29.91 in 10.0 mi West 10.4 mph - N/A   Clear
3:58 PM 42.4 °F 37.0 °F 28.0 °F 57% 29.91 in 10.0 mi West 9.2 mph - N/A   Clear
4:58 PM 39.7 °F 33.2 °F 27.7 °F 62% 29.92 in 10.0 mi West 10.4 mph - N/A   Clear
5:58 PM 38.8 °F 32.6 °F 26.1 °F 60% 29.93 in 10.0 mi NNW 9.2 mph - N/A   Clear
6:58 PM 36.5 °F 33.9 °F 27.7 °F 70% 29.94 in 10.0 mi SW 3.5 mph - N/A   Mostly Cloudy
7:58 PM 37.9 °F - 27.9 °F 67% 29.96 in 10.0 mi South 2.3 mph - N/A   Mostly Cloudy
8:58 PM 37.6 °F 35.1 °F 29.5 °F 73% 29.97 in 10.0 mi ESE 3.5 mph - N/A   Mostly Cloudy
9:58 PM 38.5 °F - 29.5 °F 70% 29.98 in 10.0 mi Calm Calm - N/A   Overcast
10:58 PM 36.1 °F - 30.2 °F 79% 29.97 in 10.0 mi Calm Calm - N/A   Clear
11:58 PM 35.1 °F 31.0 °F 28.9 °F 78% 29.99 in 10.0 mi WNW 4.6 mph - N/A   Clear